Time,TemperatureF,DewpointF,PressureIn,WindDirection,WindDirectionDegrees,WindSpeedMPH,WindSpeedGustMPH,Humidity,HourlyPrecipIn,Conditions,Clouds,dailyrainin,SoftwareType,DateUTC
2014-03-17 00:22:00,8.1,2.4,30.29,ESE,112,1.0,1.0,77,0.00,,,0.00,Wunderground v.1.15,2014-03-17 04:22:00,
2014-03-17 00:23:00,8.1,2.4,30.29,ESE,113,1.0,1.0,77,0.00,,,0.00,Wunderground v.1.15,2014-03-17 04:23:00,
2014-03-17 00:25:00,8.1,2.4,30.29,ESE,113,1.0,3.0,77,0.00,,,0.00,Wunderground v.1.15,2014-03-17 04:25:00,
2014-03-17 00:26:00,8.1,2.4,30.29,ESE,113,1.0,3.0,77,0.00,,,0.00,Wunderground v.1.15,2014-03-17 04:26:00,
2014-03-17 00:28:00,8.1,2.1,30.29,ESE,115,1.0,3.0,76,0.00,,,0.00,Wunderground v.1.15,2014-03-17 04:28:00,
2014-03-17 00:30:00,8.1,2.1,30.28,ESE,115,1.0,1.0,76,0.00,,,0.00,Wunderground v.1.15,2014-03-17 04:30:00,
2014-03-17 00:35:00,8.0,2.0,30.29,ESE,116,1.0,2.0,76,0.00,,,0.00,Wunderground v.1.15,2014-03-17 04:35:00,
2014-03-17 00:41:00,8.0,2.0,30.28,ESE,118,1.0,2.0,76,0.00,,,0.00,Wunderground v.1.15,2014-03-17 04:41:00,
2014-03-17 00:46:00,7.9,2.2,30.28,ESE,119,1.0,2.0,77,0.00,,,0.00,Wunderground v.1.15,2014-03-17 04:46:00,
2014-03-17 00:52:00,7.8,1.8,30.28,ESE,118,0.0,1.0,76,0.00,,,0.00,Wunderground v.1.15,2014-03-17 04:52:00,
2014-03-17 00:57:00,7.7,2.0,30.28,ESE,119,0.0,2.0,77,0.00,,,0.00,Wunderground v.1.15,2014-03-17 04:57:00,
2014-03-17 01:02:00,7.5,1.8,30.28,ESE,118,0.0,0.0,77,0.00,,,0.00,Wunderground v.1.15,2014-03-17 05:02:00,
2014-03-17 01:09:00,7.3,1.6,30.27,ESE,119,0.0,0.0,77,0.00,,,0.00,Wunderground v.1.15,2014-03-17 05:09:00,
2014-03-17 01:14:00,7.1,1.4,30.27,ESE,119,0.0,1.0,77,0.00,,,0.00,Wunderground v.1.15,2014-03-17 05:14:00,
2014-03-17 01:19:00,7.0,1.6,30.27,ESE,119,0.0,1.0,78,0.00,,,0.00,Wunderground v.1.15,2014-03-17 05:19:00,
2014-03-17 01:25:00,6.8,1.1,30.27,ESE,119,0.0,0.0,77,0.00,,,0.00,Wunderground v.1.15,2014-03-17 05:25:00,
2014-03-17 01:32:00,6.5,1.1,30.27,ESE,118,0.0,0.0,78,0.00,,,0.00,Wunderground v.1.15,2014-03-17 05:32:00,
2014-03-17 01:38:00,6.3,1.2,30.26,ESE,118,0.0,0.0,79,0.00,,,0.00,Wunderground v.1.15,2014-03-17 05:38:00,
2014-03-17 01:46:00,6.3,1.4,30.26,ESE,119,0.0,1.0,80,0.00,,,0.00,Wunderground v.1.15,2014-03-17 05:46:00,
2014-03-17 01:51:00,6.3,1.4,30.26,ESE,119,1.0,1.0,80,0.00,,,0.00,Wunderground v.1.15,2014-03-17 05:51:00,
2014-03-17 01:57:00,6.3,1.4,30.26,ESE,119,0.0,1.0,80,0.00,,,0.00,Wunderground v.1.15,2014-03-17 05:57:00,
2014-03-17 02:03:00,6.3,1.4,30.27,ESE,119,0.0,0.0,80,0.00,,,0.00,Wunderground v.1.15,2014-03-17 06:03:00,
2014-03-17 02:09:00,6.3,1.4,30.27,ESE,119,0.0,2.0,80,0.00,,,0.00,Wunderground v.1.15,2014-03-17 06:09:00,
2014-03-17 02:14:00,6.2,1.4,30.27,ESE,119,0.0,0.0,80,0.00,,,0.00,Wunderground v.1.15,2014-03-17 06:14:00,
2014-03-17 02:20:00,5.9,1.1,30.26,ESE,119,0.0,0.0,80,0.00,,,0.00,Wunderground v.1.15,2014-03-17 06:20:00,
2014-03-17 02:25:00,5.7,0.9,30.26,ESE,119,0.0,0.0,80,0.00,,,0.00,Wunderground v.1.15,2014-03-17 06:25:00,
2014-03-17 02:31:00,5.6,1.0,30.26,ESE,119,0.0,0.0,81,0.00,,,0.00,Wunderground v.1.15,2014-03-17 06:31:00,
2014-03-17 02:34:00,5.6,1.0,30.26,ESE,119,0.0,0.0,81,0.00,,,0.00,Wunderground v.1.15,2014-03-17 06:34:00,
2014-03-17 02:39:00,5.5,0.9,30.26,ESE,119,0.0,1.0,81,0.00,,,0.00,Wunderground v.1.15,2014-03-17 06:39:00,
2014-03-17 02:41:00,5.4,0.8,30.26,ESE,119,0.0,0.0,81,0.00,,,0.00,Wunderground v.1.15,2014-03-17 06:41:00,
2014-03-17 02:47:00,5.4,0.8,30.25,ESE,119,0.0,1.0,81,0.00,,,0.00,Wunderground v.1.15,2014-03-17 06:47:00,
2014-03-17 02:52:00,5.3,1.0,30.25,ESE,119,0.0,2.0,82,0.00,,,0.00,Wunderground v.1.15,2014-03-17 06:52:00,
2014-03-17 02:57:00,5.2,0.9,30.25,ESE,119,0.0,2.0,82,0.00,,,0.00,Wunderground v.1.15,2014-03-17 06:57:00,
2014-03-17 03:02:00,5.2,0.9,30.25,ESE,119,0.0,1.0,82,0.00,,,0.00,Wunderground v.1.15,2014-03-17 07:02:00,
2014-03-17 03:08:00,5.1,0.8,30.25,ESE,119,0.0,1.0,82,0.00,,,0.00,Wunderground v.1.15,2014-03-17 07:08:00,
2014-03-17 03:13:00,5.1,0.8,30.24,ESE,118,0.0,0.0,82,0.00,,,0.00,Wunderground v.1.15,2014-03-17 07:13:00,
2014-03-17 03:19:00,5.1,1.1,30.24,ESE,119,0.0,0.0,83,0.00,,,0.00,Wunderground v.1.15,2014-03-17 07:19:00,
2014-03-17 03:25:00,5.1,1.1,30.23,ESE,119,0.0,0.0,83,0.00,,,0.00,Wunderground v.1.15,2014-03-17 07:25:00,
2014-03-17 03:30:00,5.0,1.0,30.23,ESE,119,0.0,0.0,83,0.00,,,0.00,Wunderground v.1.15,2014-03-17 07:30:00,
2014-03-17 03:36:00,5.1,1.1,30.22,ESE,119,0.0,0.0,83,0.00,,,0.00,Wunderground v.1.15,2014-03-17 07:36:00,
2014-03-17 03:42:00,5.0,1.0,30.22,ESE,119,0.0,0.0,83,0.00,,,0.00,Wunderground v.1.15,2014-03-17 07:42:00,
2014-03-17 03:47:00,5.1,1.3,30.22,ESE,118,0.0,0.0,84,0.00,,,0.00,Wunderground v.1.15,2014-03-17 07:47:00,
2014-03-17 03:53:00,5.3,1.5,30.22,ESE,117,0.0,2.0,84,0.00,,,0.00,Wunderground v.1.15,2014-03-17 07:53:00,
2014-03-17 03:59:00,5.4,1.6,30.22,ESE,117,0.0,2.0,84,0.00,,,0.00,Wunderground v.1.15,2014-03-17 07:59:00,
2014-03-17 04:04:00,5.5,1.7,30.22,ESE,117,0.0,0.0,84,0.00,,,0.00,Wunderground v.1.15,2014-03-17 08:04:00,
2014-03-17 04:09:00,5.5,1.7,30.22,ESE,117,0.0,0.0,84,0.00,,,0.00,Wunderground v.1.15,2014-03-17 08:09:00,
2014-03-17 04:15:00,5.5,1.7,30.22,ESE,117,0.0,0.0,84,0.00,,,0.00,Wunderground v.1.15,2014-03-17 08:15:00,
2014-03-17 04:21:00,5.5,1.7,30.21,ESE,117,0.0,2.0,84,0.00,,,0.00,Wunderground v.1.15,2014-03-17 08:21:00,
2014-03-17 04:26:00,5.6,1.8,30.21,ESE,117,0.0,2.0,84,0.00,,,0.00,Wunderground v.1.15,2014-03-17 08:26:00,
2014-03-17 04:32:00,5.6,2.1,30.20,ESE,117,0.0,0.0,85,0.00,,,0.00,Wunderground v.1.15,2014-03-17 08:32:00,
2014-03-17 04:37:00,5.7,2.2,30.20,ESE,117,0.0,1.0,85,0.00,,,0.00,Wunderground v.1.15,2014-03-17 08:37:00,
2014-03-17 04:42:00,5.8,2.3,30.20,ESE,117,0.0,0.0,85,0.00,,,0.00,Wunderground v.1.15,2014-03-17 08:42:00,
2014-03-17 04:48:00,5.8,2.3,30.20,ESE,117,0.0,0.0,85,0.00,,,0.00,Wunderground v.1.15,2014-03-17 08:48:00,
2014-03-17 04:53:00,5.9,2.4,30.20,ESE,117,0.0,0.0,85,0.00,,,0.00,Wunderground v.1.15,2014-03-17 08:53:00,
2014-03-17 04:59:00,6.0,2.5,30.20,ESE,117,0.0,1.0,85,0.00,,,0.00,Wunderground v.1.15,2014-03-17 08:59:00,
2014-03-17 05:04:00,6.1,2.6,30.20,ESE,117,0.0,0.0,85,0.00,,,0.00,Wunderground v.1.15,2014-03-17 09:04:00,
2014-03-17 05:10:00,6.0,2.2,30.20,ESE,117,0.0,0.0,84,0.00,,,0.00,Wunderground v.1.15,2014-03-17 09:10:00,
2014-03-17 05:15:00,6.0,2.2,30.20,ESE,117,0.0,0.0,84,0.00,,,0.00,Wunderground v.1.15,2014-03-17 09:15:00,
2014-03-17 05:21:00,5.8,2.0,30.20,ESE,117,0.0,2.0,84,0.00,,,0.00,Wunderground v.1.15,2014-03-17 09:21:00,
2014-03-17 05:26:00,5.8,2.0,30.20,ESE,117,0.0,2.0,84,0.00,,,0.00,Wunderground v.1.15,2014-03-17 09:26:00,
2014-03-17 05:32:00,5.8,2.0,30.20,ESE,117,0.0,0.0,84,0.00,,,0.00,Wunderground v.1.15,2014-03-17 09:32:00,
2014-03-17 05:36:00,5.8,2.0,30.20,ESE,117,0.0,0.0,84,0.00,,,0.00,Wunderground v.1.15,2014-03-17 09:36:00,
2014-03-17 05:42:00,5.8,2.0,30.19,ESE,117,0.0,0.0,84,0.00,,,0.00,Wunderground v.1.15,2014-03-17 09:42:00,
2014-03-17 05:47:00,5.8,2.0,30.19,ESE,117,0.0,0.0,84,0.00,,,0.00,Wunderground v.1.15,2014-03-17 09:47:00,
2014-03-17 05:53:00,5.8,2.0,30.19,ESE,117,0.0,0.0,84,0.00,,,0.00,Wunderground v.1.15,2014-03-17 09:53:00,
2014-03-17 05:58:00,5.9,2.1,30.20,ESE,117,0.0,0.0,84,0.00,,,0.00,Wunderground v.1.15,2014-03-17 09:58:00,
2014-03-17 06:03:00,5.8,1.8,30.20,ESE,117,0.0,0.0,83,0.00,,,0.00,Wunderground v.1.15,2014-03-17 10:03:00,
2014-03-17 06:09:00,5.7,1.7,30.20,ESE,117,0.0,1.0,83,0.00,,,0.00,Wunderground v.1.15,2014-03-17 10:09:00,
2014-03-17 06:14:00,5.7,1.7,30.20,ESE,117,0.0,0.0,83,0.00,,,0.00,Wunderground v.1.15,2014-03-17 10:14:00,
2014-03-17 06:20:00,5.5,1.5,30.20,ESE,117,0.0,0.0,83,0.00,,,0.00,Wunderground v.1.15,2014-03-17 10:20:00,
2014-03-17 06:25:00,5.4,1.4,30.20,ESE,117,0.0,0.0,83,0.00,,,0.00,Wunderground v.1.15,2014-03-17 10:25:00,
2014-03-17 06:31:00,5.3,1.3,30.20,ESE,117,0.0,0.0,83,0.00,,,0.00,Wunderground v.1.15,2014-03-17 10:31:00,
2014-03-17 06:36:00,5.3,1.5,30.20,ESE,117,0.0,0.0,84,0.00,,,0.00,Wunderground v.1.15,2014-03-17 10:36:00,
2014-03-17 06:42:00,5.2,1.4,30.20,ESE,117,0.0,0.0,84,0.00,,,0.00,Wunderground v.1.15,2014-03-17 10:42:00,
2014-03-17 06:47:00,5.3,1.5,30.19,ESE,117,0.0,0.0,84,0.00,,,0.00,Wunderground v.1.15,2014-03-17 10:47:00,
2014-03-17 06:53:00,5.4,1.6,30.19,ESE,117,0.0,0.0,84,0.00,,,0.00,Wunderground v.1.15,2014-03-17 10:53:00,
2014-03-17 06:58:00,5.5,1.7,30.18,ESE,117,0.0,0.0,84,0.00,,,0.00,Wunderground v.1.15,2014-03-17 10:58:00,
2014-03-17 07:03:00,5.7,1.7,30.18,ESE,118,0.0,1.0,83,0.00,,,0.00,Wunderground v.1.15,2014-03-17 11:03:00,
2014-03-17 07:09:00,5.9,1.8,30.18,ESE,118,0.0,1.0,83,0.00,,,0.00,Wunderground v.1.15,2014-03-17 11:09:00,
2014-03-17 07:15:00,6.0,1.7,30.18,ESE,119,0.0,2.0,82,0.00,,,0.00,Wunderground v.1.15,2014-03-17 11:15:00,
2014-03-17 07:21:00,6.2,1.9,30.17,ESE,123,1.0,3.0,82,0.00,,,0.00,Wunderground v.1.15,2014-03-17 11:21:00,
2014-03-17 07:26:00,6.3,1.7,30.17,SE,133,1.0,6.0,81,0.00,,,0.00,Wunderground v.1.15,2014-03-17 11:26:00,
2014-03-17 07:32:00,6.5,1.9,30.17,SE,134,1.0,2.0,81,0.00,,,0.00,Wunderground v.1.15,2014-03-17 11:32:00,
2014-03-17 07:39:00,6.5,1.6,30.17,SE,134,1.0,2.0,80,0.00,,,0.00,Wunderground v.1.15,2014-03-17 11:39:00,
2014-03-17 07:44:00,6.5,1.6,30.17,SE,134,0.0,1.0,80,0.00,,,0.00,Wunderground v.1.15,2014-03-17 11:44:00,
2014-03-17 07:50:00,6.6,1.7,30.17,SE,134,0.0,0.0,80,0.00,,,0.00,Wunderground v.1.15,2014-03-17 11:50:00,
2014-03-17 07:55:00,6.6,1.7,30.17,SE,135,0.0,2.0,80,0.00,,,0.00,Wunderground v.1.15,2014-03-17 11:55:00,
2014-03-17 08:01:00,6.7,1.8,30.17,SE,135,0.0,0.0,80,0.00,,,0.00,Wunderground v.1.15,2014-03-17 12:01:00,
2014-03-17 08:06:00,6.8,1.9,30.17,SE,135,0.0,3.0,80,0.00,,,0.00,Wunderground v.1.15,2014-03-17 12:06:00,
2014-03-17 08:12:00,6.9,1.8,30.17,SE,135,0.0,0.0,79,0.00,,,0.00,Wunderground v.1.15,2014-03-17 12:12:00,
2014-03-17 08:17:00,7.1,2.2,30.17,SE,135,0.0,0.0,80,0.00,,,0.00,Wunderground v.1.15,2014-03-17 12:17:00,
2014-03-17 08:23:00,7.2,2.1,30.17,SE,134,0.0,0.0,79,0.00,,,0.00,Wunderground v.1.15,2014-03-17 12:23:00,
2014-03-17 08:29:00,7.3,2.2,30.17,SE,134,0.0,0.0,79,0.00,,,0.00,Wunderground v.1.15,2014-03-17 12:29:00,
2014-03-17 08:34:00,7.4,2.0,30.17,SE,135,0.0,1.0,78,0.00,,,0.00,Wunderground v.1.15,2014-03-17 12:34:00,
2014-03-17 08:40:00,7.6,2.2,30.17,SE,135,0.0,0.0,78,0.00,,,0.00,Wunderground v.1.15,2014-03-17 12:40:00,
2014-03-17 08:45:00,7.8,2.4,30.17,SE,135,0.0,2.0,78,0.00,,,0.00,Wunderground v.1.15,2014-03-17 12:45:00,
2014-03-17 08:51:00,8.3,2.9,30.16,SE,134,0.0,1.0,78,0.00,,,0.00,Wunderground v.1.15,2014-03-17 12:51:00,
2014-03-17 08:56:00,8.8,3.1,30.16,SE,135,0.0,2.0,77,0.00,,,0.00,Wunderground v.1.15,2014-03-17 12:56:00,
2014-03-17 09:02:00,9.3,3.0,30.16,SE,134,1.0,1.0,75,0.00,,,0.00,Wunderground v.1.15,2014-03-17 13:02:00,
2014-03-17 09:07:00,9.9,3.6,30.17,SE,133,1.0,1.0,75,0.00,,,0.00,Wunderground v.1.15,2014-03-17 13:07:00,
2014-03-17 09:12:00,10.3,3.7,30.17,SE,133,1.0,1.0,74,0.00,,,0.00,Wunderground v.1.15,2014-03-17 13:12:00,
2014-03-17 09:18:00,11.0,3.7,30.16,SE,133,1.0,4.0,72,0.00,,,0.00,Wunderground v.1.15,2014-03-17 13:18:00,
2014-03-17 09:23:00,11.8,3.9,30.17,SE,136,1.0,5.0,70,0.00,,,0.00,Wunderground v.1.15,2014-03-17 13:23:00,
2014-03-17 09:29:00,12.5,3.9,30.16,SSE,152,2.0,5.0,68,0.00,,,0.00,Wunderground v.1.15,2014-03-17 13:29:00,
2014-03-17 09:34:00,13.0,3.4,30.17,SSE,148,2.0,9.0,65,0.00,,,0.00,Wunderground v.1.15,2014-03-17 13:34:00,
2014-03-17 09:40:00,13.4,3.8,30.16,SSE,148,3.0,5.0,65,0.00,,,0.00,Wunderground v.1.15,2014-03-17 13:40:00,
2014-03-17 09:45:00,13.8,3.5,30.16,SSE,157,4.0,6.0,63,0.00,,,0.00,Wunderground v.1.15,2014-03-17 13:45:00,
2014-03-17 09:51:00,14.3,3.6,30.16,SE,127,4.0,4.0,62,0.00,,,0.00,Wunderground v.1.15,2014-03-17 13:51:00,
2014-03-17 09:56:00,14.8,3.0,30.16,SE,143,3.0,10.0,59,0.00,,,0.00,Wunderground v.1.15,2014-03-17 13:56:00,
2014-03-17 10:02:00,15.3,3.5,30.15,SSE,161,4.0,4.0,59,0.00,,,0.00,Wunderground v.1.15,2014-03-17 14:02:00,
2014-03-17 10:07:00,15.8,3.2,30.15,SE,141,4.0,8.0,57,0.00,,,0.00,Wunderground v.1.15,2014-03-17 14:07:00,
2014-03-17 10:13:00,16.2,3.2,30.15,SSE,148,4.0,7.0,56,0.00,,,0.00,Wunderground v.1.15,2014-03-17 14:13:00,
2014-03-17 10:19:00,16.6,3.2,30.15,SE,142,4.0,7.0,55,0.00,,,0.00,Wunderground v.1.15,2014-03-17 14:19:00,
2014-03-17 10:24:00,16.8,3.0,30.15,SE,126,4.0,5.0,54,0.00,,,0.00,Wunderground v.1.15,2014-03-17 14:24:00,
2014-03-17 10:30:00,17.3,3.1,30.15,SE,146,5.0,5.0,53,0.00,,,0.00,Wunderground v.1.15,2014-03-17 14:30:00,
2014-03-17 10:39:00,18.0,3.7,30.15,SE,143,4.0,8.0,53,0.00,,,0.00,Wunderground v.1.15,2014-03-17 14:39:00,
2014-03-17 10:44:00,18.3,3.2,30.15,SE,146,4.0,8.0,51,0.00,,,0.00,Wunderground v.1.15,2014-03-17 14:44:00,
2014-03-17 10:50:00,18.7,3.5,30.16,SSE,159,5.0,5.0,51,0.00,,,0.00,Wunderground v.1.15,2014-03-17 14:50:00,
2014-03-17 10:55:00,19.1,3.5,30.16,SSE,164,4.0,6.0,50,0.00,,,0.00,Wunderground v.1.15,2014-03-17 14:55:00,
2014-03-17 11:01:00,19.2,3.6,30.15,SSE,152,4.0,4.0,50,0.00,,,0.00,Wunderground v.1.15,2014-03-17 15:01:00,
2014-03-17 11:06:00,19.5,3.4,30.15,SSE,161,5.0,12.0,49,0.00,,,0.00,Wunderground v.1.15,2014-03-17 15:06:00,
2014-03-17 11:12:00,19.7,4.0,30.15,SSE,158,5.0,5.0,50,0.00,,,0.00,Wunderground v.1.15,2014-03-17 15:12:00,
2014-03-17 11:17:00,20.1,4.4,30.15,South,173,4.0,5.0,50,0.00,,,0.00,Wunderground v.1.15,2014-03-17 15:17:00,
2014-03-17 11:23:00,20.8,4.2,30.15,SSE,163,3.0,11.0,48,0.00,,,0.00,Wunderground v.1.15,2014-03-17 15:23:00,
2014-03-17 11:29:00,20.9,4.7,30.15,SE,136,4.0,11.0,49,0.00,,,0.00,Wunderground v.1.15,2014-03-17 15:29:00,
2014-03-17 11:34:00,21.2,5.0,30.15,SE,143,4.0,6.0,49,0.00,,,0.00,Wunderground v.1.15,2014-03-17 15:34:00,
2014-03-17 11:40:00,21.6,5.4,30.15,SE,133,3.0,3.0,49,0.00,,,0.00,Wunderground v.1.15,2014-03-17 15:40:00,
2014-03-17 11:46:00,22.1,5.4,30.14,SE,141,3.0,3.0,48,0.00,,,0.00,Wunderground v.1.15,2014-03-17 15:46:00,
2014-03-17 11:51:00,22.6,5.8,30.14,SE,140,3.0,3.0,48,0.00,,,0.00,Wunderground v.1.15,2014-03-17 15:51:00,
2014-03-17 11:56:00,23.3,5.5,30.14,SE,146,2.0,5.0,46,0.00,,,0.00,Wunderground v.1.15,2014-03-17 15:56:00,
2014-03-17 12:02:00,23.5,5.7,30.13,SSE,149,3.0,10.0,46,0.00,,,0.00,Wunderground v.1.15,2014-03-17 16:02:00,
2014-03-17 12:07:00,23.6,4.8,30.13,South,173,4.0,10.0,44,0.00,,,0.00,Wunderground v.1.15,2014-03-17 16:07:00,
2014-03-17 12:13:00,24.0,5.2,30.13,SSE,155,3.0,5.0,44,0.00,,,0.00,Wunderground v.1.15,2014-03-17 16:13:00,
2014-03-17 12:14:00,24.0,5.2,30.13,SSE,154,3.0,5.0,44,0.00,,,0.00,Wunderground v.1.15,2014-03-17 16:14:00,
2014-03-17 12:20:00,24.4,5.6,30.13,SSE,150,3.0,10.0,44,0.00,,,0.00,Wunderground v.1.15,2014-03-17 16:20:00,
2014-03-17 12:25:00,24.4,5.6,30.12,SSE,159,3.0,10.0,44,0.00,,,0.00,Wunderground v.1.15,2014-03-17 16:25:00,
2014-03-17 12:31:00,25.0,6.6,30.12,ESE,122,3.0,4.0,45,0.00,,,0.00,Wunderground v.1.15,2014-03-17 16:31:00,
2014-03-17 12:36:00,25.0,5.6,30.12,South,182,3.0,4.0,43,0.00,,,0.00,Wunderground v.1.15,2014-03-17 16:36:00,
2014-03-17 12:42:00,25.1,6.7,30.12,SE,129,3.0,3.0,45,0.00,,,0.00,Wunderground v.1.15,2014-03-17 16:42:00,
2014-03-17 12:47:00,25.3,6.4,30.12,South,179,4.0,10.0,44,0.00,,,0.00,Wunderground v.1.15,2014-03-17 16:47:00,
2014-03-17 12:52:00,25.7,6.8,30.12,SSE,167,3.0,3.0,44,0.00,,,0.00,Wunderground v.1.15,2014-03-17 16:52:00,
2014-03-17 12:58:00,26.0,6.5,30.12,SE,133,2.0,4.0,43,0.00,,,0.00,Wunderground v.1.15,2014-03-17 16:58:00,
2014-03-17 13:03:00,26.2,8.2,30.11,East,86,3.0,3.0,46,0.00,,,0.00,Wunderground v.1.15,2014-03-17 17:03:00,
2014-03-17 13:09:00,26.6,7.1,30.11,South,187,2.0,5.0,43,0.00,,,0.00,Wunderground v.1.15,2014-03-17 17:09:00,
2014-03-17 13:14:00,26.5,6.5,30.11,SSE,152,3.0,6.0,42,0.00,,,0.00,Wunderground v.1.15,2014-03-17 17:14:00,
2014-03-17 13:20:00,26.8,8.3,30.10,ENE,69,3.0,3.0,45,0.00,,,0.00,Wunderground v.1.15,2014-03-17 17:20:00,
2014-03-17 13:25:00,27.3,8.2,30.10,SSE,165,2.0,4.0,44,0.00,,,0.00,Wunderground v.1.15,2014-03-17 17:25:00,
2014-03-17 13:31:00,27.9,9.3,30.10,SE,142,1.0,1.0,45,0.00,,,0.00,Wunderground v.1.15,2014-03-17 17:31:00,
2014-03-17 13:36:00,28.4,8.7,30.10,SE,141,1.0,3.0,43,0.00,,,0.00,Wunderground v.1.15,2014-03-17 17:36:00,
2014-03-17 13:42:00,28.4,9.7,30.09,SE,142,2.0,3.0,45,0.00,,,0.00,Wunderground v.1.15,2014-03-17 17:42:00,
2014-03-17 13:47:00,28.5,8.8,30.09,SE,133,2.0,4.0,43,0.00,,,0.00,Wunderground v.1.15,2014-03-17 17:47:00,
2014-03-17 13:53:00,28.9,9.7,30.09,SE,144,1.0,3.0,44,0.00,,,0.00,Wunderground v.1.15,2014-03-17 17:53:00,
2014-03-17 13:59:00,29.3,8.5,30.09,ESE,122,2.0,6.0,41,0.00,,,0.00,Wunderground v.1.15,2014-03-17 17:59:00,
2014-03-17 14:04:00,29.2,8.9,30.08,SE,135,3.0,10.0,42,0.00,,,0.00,Wunderground v.1.15,2014-03-17 18:04:00,
2014-03-17 14:10:00,29.1,8.3,30.08,South,175,3.0,3.0,41,0.00,,,0.00,Wunderground v.1.15,2014-03-17 18:10:00,
2014-03-17 14:15:00,29.2,9.4,30.07,SSE,160,2.0,4.0,43,0.00,,,0.00,Wunderground v.1.15,2014-03-17 18:15:00,
2014-03-17 14:20:00,29.5,9.7,30.07,SE,145,1.0,1.0,43,0.00,,,0.00,Wunderground v.1.15,2014-03-17 18:20:00,
2014-03-17 14:26:00,29.8,10.0,30.07,SE,124,1.0,2.0,43,0.00,,,0.00,Wunderground v.1.15,2014-03-17 18:26:00,
2014-03-17 14:31:00,30.0,9.1,30.06,SE,134,1.0,3.0,41,0.00,,,0.00,Wunderground v.1.15,2014-03-17 18:31:00,
2014-03-17 14:36:00,29.7,8.3,30.06,SE,143,2.0,7.0,40,0.00,,,0.00,Wunderground v.1.15,2014-03-17 18:36:00,
2014-03-17 14:42:00,29.5,9.2,30.05,SE,140,3.0,3.0,42,0.00,,,0.00,Wunderground v.1.15,2014-03-17 18:42:00,
2014-03-17 14:47:00,29.7,8.8,30.05,SE,146,2.0,3.0,41,0.00,,,0.00,Wunderground v.1.15,2014-03-17 18:47:00,
2014-03-17 14:53:00,30.1,10.8,30.05,SSE,159,1.0,6.0,44,0.00,,,0.00,Wunderground v.1.15,2014-03-17 18:53:00,
2014-03-17 14:59:00,30.6,10.7,30.04,ESE,113,2.0,6.0,43,0.00,,,0.00,Wunderground v.1.15,2014-03-17 18:59:00,
2014-03-17 15:05:00,30.9,11.0,30.04,ESE,121,1.0,4.0,43,0.00,,,0.00,Wunderground v.1.15,2014-03-17 19:05:00,
2014-03-17 15:10:00,30.8,8.7,30.04,SE,141,3.0,3.0,39,0.00,,,0.00,Wunderground v.1.15,2014-03-17 19:10:00,
2014-03-17 15:16:00,30.9,9.9,30.03,SSE,157,3.0,3.0,41,0.00,,,0.00,Wunderground v.1.15,2014-03-17 19:16:00,
2014-03-17 15:21:00,30.9,8.2,30.03,SSW,193,3.0,10.0,38,0.00,,,0.00,Wunderground v.1.15,2014-03-17 19:21:00,
2014-03-17 15:26:00,31.0,10.0,30.03,SE,146,4.0,10.0,41,0.00,,,0.00,Wunderground v.1.15,2014-03-17 19:26:00,
2014-03-17 15:32:00,31.4,10.9,30.03,SE,142,2.0,4.0,42,0.00,,,0.00,Wunderground v.1.15,2014-03-17 19:32:00,
2014-03-17 15:37:00,31.8,11.3,30.02,SSE,149,1.0,4.0,42,0.00,,,0.00,Wunderground v.1.15,2014-03-17 19:37:00,
2014-03-17 15:42:00,31.8,9.6,30.02,South,174,2.0,5.0,39,0.00,,,0.00,Wunderground v.1.15,2014-03-17 19:42:00,
2014-03-17 15:47:00,31.7,9.5,30.02,SE,145,2.0,5.0,39,0.00,,,0.00,Wunderground v.1.15,2014-03-17 19:47:00,
2014-03-17 15:53:00,32.0,9.8,30.01,SE,142,1.0,2.0,39,0.00,,,0.00,Wunderground v.1.15,2014-03-17 19:53:00,
2014-03-17 15:59:00,32.5,11.9,30.01,SE,138,1.0,3.0,42,0.00,,,0.00,Wunderground v.1.15,2014-03-17 19:59:00,
2014-03-17 16:04:00,33.0,11.3,30.01,SE,138,1.0,4.0,40,0.00,,,0.00,Wunderground v.1.15,2014-03-17 20:04:00,
2014-03-17 16:10:00,33.1,11.4,30.02,ESE,122,2.0,2.0,40,0.00,,,0.00,Wunderground v.1.15,2014-03-17 20:10:00,
2014-03-17 16:16:00,33.5,11.2,30.01,East,92,1.0,2.0,39,0.00,,,0.00,Wunderground v.1.15,2014-03-17 20:16:00,
2014-03-17 16:22:00,33.5,10.0,30.01,SE,142,1.0,4.0,37,0.00,,,0.00,Wunderground v.1.15,2014-03-17 20:22:00,
2014-03-17 16:27:00,33.0,8.9,30.01,SSE,149,2.0,5.0,36,0.00,,,0.00,Wunderground v.1.15,2014-03-17 20:27:00,
2014-03-17 16:32:00,32.9,9.4,30.01,SE,146,2.0,5.0,37,0.00,,,0.00,Wunderground v.1.15,2014-03-17 20:32:00,
2014-03-17 16:37:00,32.8,9.9,30.01,South,181,2.0,5.0,38,0.00,,,0.00,Wunderground v.1.15,2014-03-17 20:37:00,
2014-03-17 16:43:00,33.3,11.5,30.00,SSE,153,1.0,2.0,40,0.00,,,0.00,Wunderground v.1.15,2014-03-17 20:43:00,
2014-03-17 16:49:00,33.8,12.0,30.00,ESE,123,1.0,6.0,40,0.00,,,0.00,Wunderground v.1.15,2014-03-17 20:49:00,
2014-03-17 16:54:00,33.9,10.9,30.00,SSE,148,1.0,6.0,38,0.00,,,0.00,Wunderground v.1.15,2014-03-17 20:54:00,
2014-03-17 17:00:00,33.5,10.0,30.00,SSE,165,2.0,4.0,37,0.00,,,0.00,Wunderground v.1.15,2014-03-17 21:00:00,
2014-03-17 17:05:00,33.3,11.0,30.00,SE,144,2.0,6.0,39,0.00,,,0.00,Wunderground v.1.15,2014-03-17 21:05:00,
2014-03-17 17:11:00,33.5,11.2,30.00,SE,138,1.0,1.0,39,0.00,,,0.00,Wunderground v.1.15,2014-03-17 21:11:00,
2014-03-17 17:16:00,33.4,11.1,30.00,SE,135,1.0,4.0,39,0.00,,,0.00,Wunderground v.1.15,2014-03-17 21:16:00,
2014-03-17 17:21:00,33.5,10.0,30.00,South,186,2.0,5.0,37,0.00,,,0.00,Wunderground v.1.15,2014-03-17 21:21:00,
2014-03-17 17:26:00,33.4,9.9,30.00,SW,221,2.0,7.0,37,0.00,,,0.00,Wunderground v.1.15,2014-03-17 21:26:00,
2014-03-17 17:32:00,33.5,10.6,30.00,SSE,152,2.0,6.0,38,0.00,,,0.00,Wunderground v.1.15,2014-03-17 21:32:00,
2014-03-17 17:37:00,33.3,10.4,30.00,SSE,151,2.0,6.0,38,0.00,,,0.00,Wunderground v.1.15,2014-03-17 21:37:00,
2014-03-17 17:43:00,33.4,8.6,29.99,South,173,3.0,6.0,35,0.00,,,0.00,Wunderground v.1.15,2014-03-17 21:43:00,
2014-03-17 17:49:00,33.4,9.3,29.99,SSW,195,3.0,7.0,36,0.00,,,0.00,Wunderground v.1.15,2014-03-17 21:49:00,
2014-03-17 17:54:00,33.2,9.7,29.99,SSE,157,3.0,10.0,37,0.00,,,0.00,Wunderground v.1.15,2014-03-17 21:54:00,
2014-03-17 18:00:00,33.0,8.9,29.99,SSW,192,4.0,4.0,36,0.00,,,0.00,Wunderground v.1.15,2014-03-17 22:00:00,
2014-03-17 18:05:00,33.0,8.9,29.99,SSE,147,4.0,6.0,36,0.00,,,0.00,Wunderground v.1.15,2014-03-17 22:05:00,
2014-03-17 18:11:00,32.8,9.3,29.99,South,183,4.0,10.0,37,0.00,,,0.00,Wunderground v.1.15,2014-03-17 22:11:00,
2014-03-17 18:16:00,32.7,9.3,29.99,SSW,192,4.0,10.0,37,0.00,,,0.00,Wunderground v.1.15,2014-03-17 22:16:00,
2014-03-17 18:22:00,32.8,9.9,29.99,SSE,157,3.0,4.0,38,0.00,,,0.00,Wunderground v.1.15,2014-03-17 22:22:00,
2014-03-17 18:27:00,32.8,9.9,29.99,South,179,2.0,5.0,38,0.00,,,0.00,Wunderground v.1.15,2014-03-17 22:27:00,
2014-03-17 18:32:00,32.7,9.8,29.99,South,184,2.0,5.0,38,0.00,,,0.00,Wunderground v.1.15,2014-03-17 22:32:00,
2014-03-17 18:38:00,32.4,9.0,29.99,South,177,3.0,13.0,37,0.00,,,0.00,Wunderground v.1.15,2014-03-17 22:38:00,
2014-03-17 18:43:00,32.0,9.2,29.99,South,188,4.0,8.0,38,0.00,,,0.00,Wunderground v.1.15,2014-03-17 22:43:00,
2014-03-17 18:49:00,31.7,9.5,30.00,SE,140,4.0,8.0,39,0.00,,,0.00,Wunderground v.1.15,2014-03-17 22:49:00,
2014-03-17 18:55:00,31.5,9.9,30.00,South,179,4.0,9.0,40,0.00,,,0.00,Wunderground v.1.15,2014-03-17 22:55:00,
2014-03-17 19:01:00,31.3,9.7,30.00,South,169,3.0,4.0,40,0.00,,,0.00,Wunderground v.1.15,2014-03-17 23:01:00,
2014-03-17 19:06:00,31.1,10.1,30.01,SE,144,1.0,4.0,41,0.00,,,0.00,Wunderground v.1.15,2014-03-17 23:06:00,
2014-03-17 19:12:00,30.9,9.4,30.00,SE,137,2.0,6.0,40,0.00,,,0.00,Wunderground v.1.15,2014-03-17 23:12:00,
2014-03-17 19:17:00,30.8,9.3,30.00,SSE,153,2.0,6.0,40,0.00,,,0.00,Wunderground v.1.15,2014-03-17 23:17:00,
2014-03-17 19:23:00,30.5,9.6,30.01,SSE,159,2.0,3.0,41,0.00,,,0.00,Wunderground v.1.15,2014-03-17 23:23:00,
2014-03-17 19:29:00,30.3,9.9,30.00,SSE,153,2.0,3.0,42,0.00,,,0.00,Wunderground v.1.15,2014-03-17 23:29:00,
2014-03-17 19:34:00,30.0,10.2,30.00,SE,143,2.0,7.0,43,0.00,,,0.00,Wunderground v.1.15,2014-03-17 23:34:00,
2014-03-17 19:39:00,29.7,9.9,30.00,SE,142,2.0,7.0,43,0.00,,,0.00,Wunderground v.1.15,2014-03-17 23:39:00,
2014-03-17 19:45:00,29.4,9.6,30.00,SE,145,2.0,2.0,43,0.00,,,0.00,Wunderground v.1.15,2014-03-17 23:45:00,
2014-03-17 19:50:00,29.1,9.9,30.00,SSE,159,2.0,2.0,44,0.00,,,0.00,Wunderground v.1.15,2014-03-17 23:50:00,
2014-03-17 19:55:00,28.9,9.2,30.00,SSE,167,2.0,5.0,43,0.00,,,0.00,Wunderground v.1.15,2014-03-17 23:55:00,
2014-03-17 20:01:00,28.7,9.5,30.00,SSE,160,3.0,7.0,44,0.00,,,0.00,Wunderground v.1.15,2014-03-18 00:01:00,
2014-03-17 20:06:00,28.5,9.8,30.00,SSE,149,3.0,7.0,45,0.00,,,0.00,Wunderground v.1.15,2014-03-18 00:06:00,
2014-03-17 20:12:00,28.3,10.1,30.00,South,175,3.0,4.0,46,0.00,,,0.00,Wunderground v.1.15,2014-03-18 00:12:00,
2014-03-17 20:17:00,28.0,10.3,30.00,South,174,2.0,4.0,47,0.00,,,0.00,Wunderground v.1.15,2014-03-18 00:17:00,
2014-03-17 20:23:00,27.7,10.5,30.00,SSE,155,2.0,4.0,48,0.00,,,0.00,Wunderground v.1.15,2014-03-18 00:23:00,
2014-03-17 20:29:00,27.5,10.4,29.99,SSE,165,3.0,11.0,48,0.00,,,0.00,Wunderground v.1.15,2014-03-18 00:29:00,
2014-03-17 20:34:00,27.4,10.7,29.99,SSE,153,3.0,5.0,49,0.00,,,0.00,Wunderground v.1.15,2014-03-18 00:34:00,
2014-03-17 20:39:00,27.2,10.5,29.99,SSE,161,3.0,5.0,49,0.00,,,0.00,Wunderground v.1.15,2014-03-18 00:39:00,
2014-03-17 20:44:00,27.1,10.4,30.00,SSE,153,2.0,5.0,49,0.00,,,0.00,Wunderground v.1.15,2014-03-18 00:44:00,
2014-03-17 20:50:00,26.9,10.7,30.01,SSE,148,2.0,3.0,50,0.00,,,0.00,Wunderground v.1.15,2014-03-18 00:50:00,
2014-03-17 20:56:00,26.7,10.5,30.01,SSE,148,1.0,3.0,50,0.00,,,0.00,Wunderground v.1.15,2014-03-18 00:56:00,
2014-03-17 21:02:00,26.5,11.2,30.02,SE,146,1.0,2.0,52,0.00,,,0.00,Wunderground v.1.15,2014-03-18 01:02:00,
2014-03-17 21:07:00,26.3,11.0,30.03,SSE,147,1.0,2.0,52,0.00,,,0.00,Wunderground v.1.15,2014-03-18 01:07:00,
2014-03-17 21:13:00,26.2,10.9,30.03,SE,146,1.0,2.0,52,0.00,,,0.00,Wunderground v.1.15,2014-03-18 01:13:00,
2014-03-17 21:19:00,26.1,11.3,30.03,SSE,147,0.0,3.0,53,0.00,,,0.00,Wunderground v.1.15,2014-03-18 01:19:00,
2014-03-17 21:25:00,25.9,11.1,30.03,SSE,147,1.0,2.0,53,0.00,,,0.00,Wunderground v.1.15,2014-03-18 01:25:00,
2014-03-17 21:30:00,25.7,11.3,30.02,SSE,149,2.0,2.0,54,0.00,,,0.00,Wunderground v.1.15,2014-03-18 01:30:00,
2014-03-17 21:34:00,25.7,11.3,30.02,SSE,149,2.0,2.0,54,0.00,,,0.00,Wunderground v.1.15,2014-03-18 01:34:00,
2014-03-17 21:40:00,25.6,11.2,30.03,SSE,149,1.0,1.0,54,0.00,,,0.00,Wunderground v.1.15,2014-03-18 01:40:00,
2014-03-17 21:45:00,25.5,11.6,30.03,SSE,149,1.0,3.0,55,0.00,,,0.00,Wunderground v.1.15,2014-03-18 01:45:00,
2014-03-17 21:51:00,25.4,11.5,30.04,SSE,149,1.0,2.0,55,0.00,,,0.00,Wunderground v.1.15,2014-03-18 01:51:00,
2014-03-17 21:57:00,25.2,11.3,30.04,SSE,149,0.0,2.0,55,0.00,,,0.00,Wunderground v.1.15,2014-03-18 01:57:00,
2014-03-17 22:02:00,25.0,11.5,30.05,SSE,149,0.0,0.0,56,0.00,,,0.00,Wunderground v.1.15,2014-03-18 02:02:00,
2014-03-17 22:08:00,24.7,11.2,30.05,SSE,149,0.0,0.0,56,0.00,,,0.00,Wunderground v.1.15,2014-03-18 02:08:00,
2014-03-17 22:13:00,24.4,11.7,30.05,SSE,149,0.0,0.0,58,0.00,,,0.00,Wunderground v.1.15,2014-03-18 02:13:00,
2014-03-17 22:19:00,24.2,11.9,30.04,SSE,149,0.0,0.0,59,0.00,,,0.00,Wunderground v.1.15,2014-03-18 02:19:00,
2014-03-17 22:24:00,24.0,12.1,30.05,SSE,149,0.0,0.0,60,0.00,,,0.00,Wunderground v.1.15,2014-03-18 02:24:00,
2014-03-17 22:30:00,23.9,12.4,30.05,SSE,149,0.0,0.0,61,0.00,,,0.00,Wunderground v.1.15,2014-03-18 02:30:00,
2014-03-17 22:35:00,23.8,12.7,30.05,SSE,149,0.0,0.0,62,0.00,,,0.00,Wunderground v.1.15,2014-03-18 02:35:00,
2014-03-17 22:41:00,23.9,13.1,30.05,SSE,149,0.0,0.0,63,0.00,,,0.00,Wunderground v.1.15,2014-03-18 02:41:00,
2014-03-17 22:46:00,24.0,12.9,30.05,SSE,149,0.0,0.0,62,0.00,,,0.00,Wunderground v.1.15,2014-03-18 02:46:00,
2014-03-17 22:52:00,24.1,13.3,30.05,SSE,149,0.0,0.0,63,0.00,,,0.00,Wunderground v.1.15,2014-03-18 02:52:00,
2014-03-17 22:58:00,24.3,13.5,30.05,SSE,149,0.0,2.0,63,0.00,,,0.00,Wunderground v.1.15,2014-03-18 02:58:00,
2014-03-17 23:03:00,24.5,13.7,30.05,SSE,147,1.0,7.0,63,0.00,,,0.00,Wunderground v.1.15,2014-03-18 03:03:00,
2014-03-17 23:09:00,24.7,14.2,30.05,SSE,147,1.0,7.0,64,0.00,,,0.00,Wunderground v.1.15,2014-03-18 03:09:00,
2014-03-17 23:14:00,24.8,14.0,30.05,SSE,147,1.0,2.0,63,0.00,,,0.00,Wunderground v.1.15,2014-03-18 03:14:00,
2014-03-17 23:19:00,24.9,14.4,30.05,SE,146,1.0,3.0,64,0.00,,,0.00,Wunderground v.1.15,2014-03-18 03:19:00,
2014-03-17 23:24:00,24.9,14.4,30.05,SE,146,1.0,2.0,64,0.00,,,0.00,Wunderground v.1.15,2014-03-18 03:24:00,
2014-03-17 23:29:00,24.9,14.4,30.04,SE,144,1.0,2.0,64,0.00,,,0.00,Wunderground v.1.15,2014-03-18 03:29:00,
2014-03-17 23:34:00,24.9,14.4,30.04,SE,137,2.0,7.0,64,0.00,,,0.00,Wunderground v.1.15,2014-03-18 03:34:00,
2014-03-17 23:40:00,24.8,14.3,30.03,SE,142,2.0,2.0,64,0.00,,,0.00,Wunderground v.1.15,2014-03-18 03:40:00,
2014-03-17 23:45:00,24.7,14.6,30.03,SE,141,2.0,5.0,65,0.00,,,0.00,Wunderground v.1.15,2014-03-18 03:45:00,
2014-03-17 23:50:00,24.6,14.5,30.03,SE,140,2.0,2.0,65,0.00,,,0.00,Wunderground v.1.15,2014-03-18 03:50:00,
2014-03-17 23:55:00,24.5,14.4,30.03,SE,140,1.0,4.0,65,0.00,,,0.00,Wunderground v.1.15,2014-03-18 03:55:00,